OpenBCM V2.0.2 (Linux)

Packet Radio Mailbox

IZ3LSV

[San Dona' di P. JN]

 Login: GUEST





  
LU1HVK > KEPLER   10.01.20 18:03l 243 Lines 12025 Bytes #999 (0) @ WW
BID : 38739_LU1HVK
Read: GUEST
Subj: TLE 04 11
Path: IZ3LSV<IW0QNL<OK0NBR<OK2PEN<N3HYM<XE1FH<LU3DVN<LU1HVK
Sent: 200110/1555Z 38739@LU1HVK.2594.CBA.ARG.SA LinBPQ6.0.19

                         _    _   _ _ _   ___     ___  __
                        | |  | | | / | | | \ \   / / |/ /
                        | |  | | | | | |_| |\ \ / /| ' /
                        | |__| |_| | |  _  | \ V / | . \
                        |_____\___/|_|_| |_|  \_/  |_|\_\

     BBS/NODO - CORDOBA (LEONES-FF87UH) - LU1HVK-4 NODO - LU1HVK-3 APRS

+----------------------------------------------------------------------------+
OSCAR 7
1  7530U 74089B   19307.91178968 -.00000029 +00000-0 +10038-3 0  9999
2  7530 101.7648 274.2468 0012506 080.0143 293.9212 12.53640562057607
OSCAR 11 (UoSAT 2)
1 14781U 84021B   19307.87404975 +.00000054 +00000-0 +12751-4 0  9999
2 14781 097.6032 325.9975 0007507 217.8735 142.1952 14.83117257898246
OSCAR 19 (LUSAT)
1 20442U 90005G   19307.78675878 +.00000023 +00000-0 +24785-4 0  9997
2 20442 098.6623 249.6324 0012859 101.2191 259.0439 14.32936794556093
EYESAT A
1 22825U 93061C   19307.75361538 -.00000001 +00000-0 +17513-4 0  9999
2 22825 098.9148 299.6160 0007768 323.0602 037.0044 14.30070105361411
ITAMSAT
1 22826U 93061D   19307.93294358 +.00000010 +00000-0 +21692-4 0  9997
2 22826 098.9088 299.7738 0008130 309.8509 050.1957 14.30404415361660
RADIO ROSTO
1 23439U 94085A   19307.87315088 -.00000040 +00000-0 +60780-4 0  9997
2 23439 064.8156 252.6636 0145325 086.2064 275.5462 11.27568547023472
JAS 2
1 24278U 96046B   19307.82494796 -.00000002 +00000-0 +36114-4 0  9999
2 24278 098.5587 082.6334 0349497 241.8424 114.6997 13.53094439146238
TECHSAT 1B
1 25397U 98043D   19307.86178310 -.00000001 +00000-0 +18854-4 0  9996
2 25397 098.7012 246.3986 0001697 037.3351 322.7945 14.23673504107317
ISS (ZARYA)
1 25544U 98067A   19308.10180160  .00001171  00000-0  28308-4 0  9993
2 25544  51.6444  27.5362 0006037 225.6091 217.2682 15.50249926196964
PCSAT
1 26931U 01043C   19307.65073810 -.00000020  00000-0  23947-4 0  9991
2 26931  67.0529   7.6768 0007475 266.5259  93.4987 14.30557351944702
SAUDISAT 1C
1 27607U 02058C   19307.46705140 +.00000004 +00000-0 +21367-4 0  9991
2 27607 064.5559 348.3630 0073574 229.6568 129.8094 14.75585518907232
CUTE-1
1 27844U 03031E   19307.89812735 +.00000051 +00000-0 +42541-4 0  9991
2 27844 098.6850 314.0504 0009748 357.6279 002.4851 14.22203076847890
CUBESAT XI 4
1 27848U 03031J   19307.57786442 +.00000039 +00000-0 +37516-4 0  9997
2 27848 098.6923 314.2623 0009872 010.5608 349.5775 14.21794996847703
MOZHAYETS 4
1 27939U 03042A   19307.91374902 +.00000091 +00000-0 +24901-4 0  9994
2 27939 098.0608 081.1997 0012696 356.2447 003.8644 14.66814172860800
CUBESAT XI 5
1 28895U 05043F   19307.87228209 +.00000159 +00000-0 +39471-4 0  9995
2 28895 097.9793 086.0335 0015482 275.7873 084.1565 14.63706664747462
CUTE-1.7+APD II
1 32785U 08021C   19307.84466182 +.00000208 +00000-0 +28036-4 0  9998
2 32785 097.5576 301.0989 0013530 158.5315 201.6473 14.88367660624167
DELFI C3
1 32789U 08021G   19307.78733832 +.00000974 +00000-0 +68585-4 0  9997
2 32789 097.4493 353.1897 0012439 020.5419 339.6306 15.07227225627663
SEEDS
1 32791U 08021J   19307.83112331 +.00000358 +00000-0 +41579-4 0  9991
2 32791 097.5322 307.1781 0014386 133.3764 226.8655 14.90901391624618
YUBELEINY
1 32953U 08025A   19307.75487703  .00000020  00000-0  75656-4 0  9993
2 32953  82.5042  58.8927 0019630 185.7731 174.3121 12.43091989519465
PRISM (HITOMI)
1 33493U 09002B   19307.84995490 +.00000123 +00000-0 +16331-4 0  9995
2 33493 098.1243 234.0549 0016262 085.0963 275.2114 14.96786925585801
KKS-1 (KISEKI)
1 33499U 09002H   19307.88424902 +.00000074 +00000-0 +18905-4 0  9994
2 33499 098.3383 150.9394 0010163 122.3555 237.8638 14.75475399579179
SWISSCUBE
1 35932U 09051B   19307.90446303 +.00000143 +00000-0 +43390-4 0  9997
2 35932 098.5995 118.0401 0008698 100.7608 259.4569 14.56325178536856
BEESAT
1 35933U 09051C   19307.89919796 +.00000112 +00000-0 +36306-4 0  9992
2 35933 098.6010 119.8489 0006840 111.4817 248.7110 14.56409131536922
ITUPSAT 1
1 35935U 09051E   19307.89931259 +.00000085 +00000-0 +30608-4 0  9990
2 35935 098.6119 120.0757 0009166 110.4068 249.8114 14.55563572536719
XIWANG-1 (HOPE-1)
1 36122U 09072B   19307.76014446 -.00000053 +00000-0 -28338-4 0  9992
2 36122 100.0795 303.6807 0007732 031.0958 329.0611 13.16351672475047
TISAT 1
1 36799U 10035E   19307.44605272  .00000478  00000-0  54190-4 0  9995
2 36799  98.1726 104.3274 0012171   0.4873 359.6354 14.91192805505290
JUGNU
1 37839U 11058B   19307.89699664 +.00000312 +00000-0 +24821-4 0  9999
2 37839 019.9603 216.6778 0018930 051.2662 004.5592 14.12663391416710
SRMSAT
1 37841U 11058D   19307.31301757 +.00000309 +00000-0 +24616-4 0  9990
2 37841 019.9722 279.8436 0011626 268.3981 235.2279 14.10642191416052
M-CUBED/EXP-1 PRIME
1 37855U 11061F   19307.89732862 +.00002036 +00000-0 +10838-3 0  9996
2 37855 101.7204 274.4709 0172880 027.0662 333.9436 15.05727759437101
HORYU 2
1 38340U 12025D   19307.89406483 +.00000168 +00000-0 +32467-4 0  9991
2 38340 098.3143 350.5264 0012337 048.6629 311.5639 14.75768945391135
STRAND 1
1 39090U 13009E   19307.55664349 +.00000035 +00000-0 +27479-4 0  9997
2 39090 098.4739 151.1211 0008159 236.0705 123.9705 14.35103467350145
SOMP
1 39134U 13015E   19307.37034538  .00001694  00000-0  85337-4 0  9993
2 39134  64.8623 294.2948 0037295 281.2779  78.4158 15.20460080361527
BEESAT 3
1 39135U 13015F   19307.40691882 +.00001088 +00000-0 +62760-4 0  9991
2 39135 064.8670 314.4326 0038818 286.8171 072.8699 15.17700766360750
BEESAT 2
1 39136U 13015G   19307.43057679  .00001045  00000-0  61977-4 0  9997
2 39136  64.8681 318.5800 0029837 291.6355  68.1593 15.17115711361060
CUBEBUG 1
1 39153U 13018D   19307.76526882  .00000223  00000-0  35973-4 0  9996
2 39153  97.9815  45.1387 0018268 110.0143 250.3038 14.80618113352245
ZACUBE
1 39417U 13066B   19307.85914283  .00000216  00000-0  33618-4 0  9994
2 39417  97.5623 313.5945 0057634 301.7797  57.7810 14.81172037321498
TRITON 1
1 39427U 13066M   19307.90339746 +.00000229 +00000-0 +44018-4 0  9996
2 39427 097.6946 276.8694 0115214 083.0528 278.3767 14.67899415318422
GOMX 1
1 39430U 13066Q   19307.92498413 +.00000174 +00000-0 +40382-4 0  9998
2 39430 097.7627 255.4833 0150931 177.9184 182.2677 14.59303388316765
HUMSAT D
1 39433U 13066T   19307.68052799  .00000511  00000-0  54943-4 0  9990
2 39433  97.5380 349.4371 0030358 197.5383 162.4791 14.92289784323655
CUBEBUG 2
1 39440U 13066AA  19307.78720988 +.00000260 +00000-0 +43049-4 0  9997
2 39440 097.6116 298.1343 0080179 357.4592 002.6200 14.75909672319140
FUNCUBE 1
1 39444U 13066AE  19307.58041714 +.00000262 +00000-0 +38592-4 0  9991
2 39444 097.5592 315.4048 0056660 295.8242 063.7134 14.82002444319762
UWE-3
1 39446U 13066AG  19307.89316241 +.00000226 +00000-0 +36695-4 0  9999
2 39446 097.5863 305.3859 0069285 330.1952 029.5321 14.78444565319094
SPROUT
1 39770U 14029E   19307.74207688  .00000980  00000-0  11425-3 0  9997
2 39770  97.8896  50.1901 0008999   0.0013   0.1210 14.87488732295350
UNISAT 6
1 40012U 14033C   19307.75156671  .00000182  00000-0  34448-4 0  9994
2 40012  97.7364 168.2738 0058785  13.7105 346.5684 14.74027055289022
DUCHIFAT 1
1 40021U 14033M   19307.82200533  .00000503  00000-0  57093-4 0  9997
2 40021  97.9270 232.8847 0012085 320.2708  39.7623 14.90725051292125
QB50P1
1 40025U 14033R   19307.86681863 +.00000330 +00000-0 +41089-4 0  9990
2 40025 097.9055 227.3152 0011779 331.1992 028.8573 14.89012324291372
CHUBUSAT 1
1 40300U 14070C   19307.78948753  .00000856  00000-0  40093-4 0  9999
2 40300  97.3150  18.3989 0018877 293.1284 221.9070 15.22234139277023
NUDT-PHONESAT
1 40900U 15049B   19307.75486469  .00002456  00000-0  10653-3 0  9996
2 40900  97.4364 315.7660 0014271  64.1674  47.2523 15.23226924228673
ZDPS 2A
1 40901U 15049C   19307.91943490 +.00000983 +00000-0 +51670-4 0  9995
2 40901 097.4616 311.7721 0015123 082.4881 338.2688 15.17909455228202
ZDPS 2B
1 40902U 15049D   19307.95351545 +.00001158 +00000-0 +60506-4 0  9997
2 40902 097.4574 309.1904 0014987 080.1320 310.1494 15.17787464228185
XW-2A
1 40903U 15049E   19307.80966869  .00002184  00000-0  52662-4 0  9997
2 40903  97.3214 351.2617 0013682  12.7443 111.4042 15.42275157231536
KAITUO 1A
1 40904U 15049F   19307.93396568 +.00000923 +00000-0 +52135-4 0  9999
2 40904 097.4712 307.6162 0016355 088.9354 356.4193 15.15488144227936
OBJECT G
1 40905U 15049G   19307.91525885 +.00000532 +00000-0 +32503-4 0  9997
2 40905 097.4765 305.0072 0017359 085.0149 002.2433 15.14381346227794
XW-2C
1 40906U 15049H   19307.96200221 +.00000530 +00000-0 +31170-4 0  9994
2 40906 097.4720 307.7914 0016366 080.7998 309.7247 15.15807116227945
XW-2D
1 40907U 15049J   19307.92866729 +.00000947 +00000-0 +52634-4 0  9992
2 40907 097.4698 307.4422 0015804 078.5339 347.9382 15.16009452227954
LILACSAT 2
1 40908U 15049K   19307.74360832  .00000566  00000-0  34808-4 0  9997
2 40908  97.4842 305.9259 0017522  85.9275  17.5999 15.13882873227695
XW-2F
1 40910U 15049M   19307.94875429 +.00001045 +00000-0 +55368-4 0  9992
2 40910 097.4655 309.6761 0016315 070.8204 318.9215 15.17509192227988
XW-2B
1 40911U 15049N   19307.96119361 +.00000585 +00000-0 +33905-4 0  9992
2 40911 097.4720 308.1457 0015589 078.9802 311.6072 15.15935747227857
KAITUO 1B
1 40912U 15049P   19307.78252830  .00001266  00000-0  62097-4 0  9993
2 40912  97.4504 313.3701 0016164  54.2138  51.2454 15.19848441228284
TIANWANG 1C (TW-1C)
1 40926U 15051B   19307.83391661  .00015386  00000-0  20196-3 0  9994
2 40926  97.1189 353.9383 0006508 203.7683 244.3331 15.58593733231656
TIANWANG 1B (TW-1B)
1 40927U 15051C   19307.81679150  .00014468  00000-0  20305-3 0  9997
2 40927  97.1216 353.0063 0006296 217.6863 262.7285 15.56811273231485
